Location: Quedlinburg
(51.7921°N, 11.1414°E)
Time: 07:55:46
(UTC+02:00)

SO-50 - Pass Details

Date: 07 March 2026
Orbit: 567 x 673 km, 64.6° (Epoch: 13 April)

Event Time Altitude Azimuth Distance (km) Brightness Sun altitude
Exits shadow 06:04:37 - 297° (WNW) 2,444 ? -7.5°
Reaches altitude 10° 06:05:50 10° 287° (WNW) 2,109 ? -7.3°
Maximum altitude 06:08:51 17° 248° (WSW) 1,688 ? -6.9°
Drops below altitude 10° 06:11:50 10° 209° (SSW) 2,081 ? -6.4°
Sets 06:14:50 0° 189° (S) 2,972 ? -5.9°
